OE3UKW Weather Reports


Display with metric or nautical units.
time (UTC)temp
F
wind
direction
speed
MPH
gust
MPH
rain 1hr
in
rain 24hr
in
rain mn
in
humidity
%
barometer
mb
20260504043110 56 159 8.0 13.0 0.00 0.00 0.00 50 1016.1
20260504042110 55 144 8.0 12.0 0.00 0.00 0.00 50 1016.1
20260504041110 55 152 7.0 13.0 0.00 0.00 0.00 50 1015.9
20260504040110 55 133 9.0 12.0 0.00 0.00 0.00 49 1016.1
20260504035111 55 159 6.0 13.0 0.00 0.00 0.00 49 1016.1
20260504034110 55 150 7.0 14.0 0.00 0.00 0.00 49 1016.1
20260504033110 55 151 6.0 14.0 0.00 0.00 0.00 48 1016.2
20260504032110 56 136 9.0 16.0 0.00 0.00 0.00 48 1016.0
20260504031110 56 159 11.0 18.0 0.00 0.00 0.00 48 1015.9
20260504030110 56 152 12.0 17.0 0.00 0.00 0.00 48 1015.8
20260504025110 56 144 13.0 18.0 0.00 0.00 0.00 47 1016.0
20260504024110 56 155 12.0 21.0 0.00 0.00 0.00 47 1016.1
20260504023110 56 160 11.0 20.0 0.00 0.00 0.00 47 1016.1
20260504022110 56 155 13.0 19.0 0.00 0.00 0.00 47 1016.3
20260504021110 56 173 10.0 21.0 0.00 0.00 0.00 47 1016.1
20260504020110 56 144 9.0 18.0 0.00 0.00 0.00 47 1016.1
20260504015110 56 140 13.0 18.0 0.00 0.00 0.00 46 1016.2
20260504014110 56 131 12.0 17.0 0.00 0.00 0.00 46 1016.1
20260504013110 56 155 15.0 20.0 0.00 0.00 0.00 46 1016.1
20260504012110 56 134 13.0 16.0 0.00 0.00 0.00 46 1016.2
20260504011110 56 146 10.0 11.0 0.00 0.00 0.00 46 1016.1
20260504005114 57 148 10.0 17.0 0.00 0.00 0.00 46 1015.9
20260504004114 57 114 11.0 17.0 0.00 0.00 0.00 45 1016.0
20260504003114 57 133 12.0 17.0 0.00 0.00 0.00 45 1016.0
20260504002114 56 136 10.0 16.0 0.00 0.00 0.00 46 1016.0
20260504001114 56 148 11.0 17.0 0.00 0.00 0.00 46 1016.1
20260504000114 56 146 12.0 16.0 0.00 0.00 0.00 45 1016.1
20260503235113 56 155 11.0 17.0 0.00 0.00 0.00 45 1016.2
20260503234114 56 119 10.0 15.0 0.00 0.00 0.00 44 1016.3
20260503233113 56 137 11.0 14.0 0.00 0.00 0.00 44 1016.3
20260503232113 56 133 12.0 15.0 0.00 0.00 0.00 43 1016.4
20260503231114 56 134 11.0 16.0 0.00 0.00 0.00 43 1016.4
20260503230113 57 152 11.0 16.0 0.00 0.00 0.00 43 1016.5
20260503225113 56 149 8.0 17.0 0.00 0.00 0.00 43 1016.6
20260503224113 56 146 11.0 16.0 0.00 0.00 0.00 43 1016.7
20260503223113 57 360 11.0 14.0 0.00 0.00 0.00 43 1016.7
20260503222113 57 150 10.0 14.0 0.00 0.00 0.00 42 1016.7
20260503221113 57 132 9.0 13.0 0.00 0.00 0.00 42 1016.8
20260503220113 58 148 8.0 12.0 0.00 0.00 0.00 41 1016.9
20260503215113 58 180 9.0 12.0 0.00 0.00 0.00 41 1016.9
20260503214113 58 148 10.0 12.0 0.00 0.00 0.00 40 1016.8
20260503213113 59 175 9.0 13.0 0.00 0.00 0.00 39 1017.0
20260503212113 59 150 9.0 12.0 0.00 0.00 0.00 39 1017.0
20260503211113 60 150 9.0 12.0 0.00 0.00 0.00 38 1017.0
20260503210113 60 159 7.0 12.0 0.00 0.00 0.00 38 1017.0
20260503205113 60 148 9.0 12.0 0.00 0.00 0.00 38 1016.9
20260503204113 60 147 6.0 12.0 0.00 0.00 0.00 37 1016.9
20260503203113 61 155 9.0 11.0 0.00 0.00 0.00 36 1016.9
20260503202113 62 146 7.0 11.0 0.00 0.00 0.00 35 1017.1
20260503201113 62 131 9.0 11.0 0.00 0.00 0.00 35 1017.2
20260503200113 63 134 9.0 13.0 0.00 0.00 0.00 34 1017.2
20260503195113 64 159 10.0 15.0 0.00 0.00 0.00 34 1017.2
20260503194113 64 137 11.0 16.0 0.00 0.00 0.00 34 1017.1
20260503193113 64 360 10.0 17.0 0.00 0.00 0.00 34 1017.3
20260503192113 64 132 11.0 16.0 0.00 0.00 0.00 34 1017.2
20260503191113 64 145 9.0 14.0 0.00 0.00 0.00 34 1017.2
20260503190113 65 169 10.0 13.0 0.00 0.00 0.00 33 1017.2
20260503185113 65 140 9.0 13.0 0.00 0.00 0.00 33 1017.1
20260503184113 66 140 7.0 12.0 0.00 0.00 0.00 33 1017.0
20260503183113 67 146 7.0 14.0 0.00 0.00 0.00 32 1017.0
20260503182112 67 121 8.0 14.0 0.00 0.00 0.00 32 1016.9
20260503181112 68 131 9.0 12.0 0.00 0.00 0.00 31 1016.8
20260503180112 69 146 9.0 13.0 0.00 0.00 0.00 30 1016.7
20260503175112 70 135 10.0 15.0 0.00 0.00 0.00 29 1016.6
20260503174113 70 127 11.0 15.0 0.00 0.00 0.00 28 1016.5
20260503173112 71 146 12.0 20.0 0.00 0.00 0.00 27 1016.4
20260503172112 72 126 11.0 17.0 0.00 0.00 0.00 25 1016.3
20260503171112 72 117 12.0 19.0 0.00 0.00 0.00 25 1016.2
20260503170112 73 142 15.0 24.0 0.00 0.00 0.00 24 1016.3
20260503160112 76 142 15.0 21.0 0.00 0.00 0.00 22 1016.2
20260503150112 77 144 13.0 23.0 0.00 0.00 0.00 20 1016.6
20260503140112 78 121 19.0 25.0 0.00 0.00 0.00 22 1017.1
20260503131112 78 161 10.0 22.0 0.00 0.00 0.00 22 1017.9
20260503130112 78 121 18.0 24.0 0.00 0.00 0.00 22 1018.0
20260503120111 77 138 14.0 26.0 0.00 0.00 0.00 25 1018.9
20260503110112 74 117 14.0 23.0 0.00 0.00 0.00 28 1019.5
20260503100111 72 155 13.0 23.0 0.00 0.00 0.00 28 1020.2
20260503090111 70 134 15.0 25.0 0.00 0.00 0.00 30 1020.5
20260503081111 68 144 12.0 20.0 0.00 0.00 0.00 29 1020.7
20260503080111 68 147 12.0 21.0 0.00 0.00 0.00 31 1020.8
20260503072111 65 180 14.0 22.0 0.00 0.00 0.00 32 1020.6
20260503071111 65 140 12.0 23.0 0.00 0.00 0.00 32 1020.5
20260503070111 65 157 14.0 24.0 0.00 0.00 0.00 34 1020.6
20260503060111 59 118 11.0 19.0 0.00 0.00 0.00 45 1020.3
20260503055111 57 122 8.0 12.0 0.00 0.00 0.00 50 1020.2
20260503054111 56 113 9.0 10.0 0.00 0.00 0.00 53 1020.4
20260503053111 53 134 3.0 9.0 0.00 0.00 0.00 56 1020.5
20260503052111 52 131 4.0 7.0 0.00 0.00 0.00 58 1020.4
20260503051110 50 125 3.0 6.0 0.00 0.00 0.00 61 1020.5
20260503050111 48 182 3.0 5.0 0.00 0.00 0.00 66 1020.4
20260503045111 46 182 0.0 0.0 0.00 0.00 0.00 69 1020.3
20260503044110 44 181 0.0 0.0 0.00 0.00 0.00 70 1020.3